"Pseudo-MPEC" for C8GKP22

Created 2022 Nov 27 7:22:11 UT using Find_Orb

Click here for an explanation of pseudo-MPECs

 
 Astrometry: 
     C8GKP22*1C2022 11 23.48947206 08 19.914+50 14 25.26   ~BNCb 21.60GVNEOCPG96
     C8GKP22 1C2022 11 23.49521606 08 19.309+50 14 24.72   ~BNCb 21.22GVNEOCPG96
     C8GKP22 1C2022 11 23.50096306 08 18.805+50 14 24.36   ~BNCb 21.66GVNEOCPG96
     C8GKP22 1C2022 11 23.50671806 08 18.276+50 14 23.96   ~BNCb 21.48GVNEOCPG96
     C8GKP22 KC2022 11 23.53361106 08 15.740+50 14 22.20   ~BND7 21.57GVNEOCPI52
     C8GKP22 KC2022 11 23.53540606 08 15.610+50 14 22.30   ~BND7 21.85GVNEOCPI52
     C8GKP22 KC2022 11 23.53720206 08 15.510+50 14 22.40   ~BND7 21.11GVNEOCPI52
     C8GKP22 KC2022 11 24.24321206 07 12.770+50 13 50.10   ~BO6b       VNEOCPI52
     C8GKP22 KC2022 11 24.25805206 07 11.420+50 13 49.50   ~BO6b       VNEOCPI52
     C8GKP22 KC2022 11 26)[fI44B'ew%xc,![^]Ft%#_/FHXDX;%xm3`Ox7m:lWml:*84cosLH21
     C8GKP22 KC2022 11 26;v*9.Fr-dft%;LbAstrometry@3Tw5!CP_\redacted;H+lO!hY:H21
     C8GKP22 KC2022 11 26.47984506 03 41.994+50 10 54.23   ~BQCM       VNEOCPV06
     C8GKP22 KC2022 11 26.48741406 03 41.227+50 10 52.72   ~BQCM       VNEOCPV06
     C8GKP22 KC2022 11 26.48893106 03 41.029+50 10 51.89   ~BQCM 21.79GVNEOCPV06
     C8GKP22  C2022 11 26PY3]xSW#n)sVI,ev@clickDZD(?jW@2k[cJH!X%I;yY?_D?[e=aEF51
     C8GKP22  C2022 11 26w`M=P_7=PLTtWO86x.5XMhereOVl0udforLt;22aJ3kvmEKtf9StF51
     C8GKP22  C2022 11 26(1GWAnB=XH7MZ9`PT0dE`Wk1+G2L:eFwexplanationPH.KpPh(xF51

Station data:
(F51) Pan-STARRS 1, Haleakala  (N20.707234 W156.255910)  US/Hawaii.
   Observers J. Bulger, T. Lowe, A. Schultz, M. Willman. Measurers K.
   Chambers, S. Chastel, T. de Boer, L. Denneau, J. Fairlamb, H. Flewelling,
   M. Huber, C.-C. Lin, E. Magnier, Y. Ramanjooloo, R. Wainscoat, R. Weryk.
   1.8-m Ritchey-Chrétien + CCD.
(G96) Mt. Lemmon Survey  (N32.442751 W110.788720)  US/Arizona.  Observers T.
   A. Pruyne, B. M. Africano, E. J. Christensen, G. A. Farneth, D. C. Fuls,
   A. R. Gibbs, A. D. Grauer, H. Gröller, J. A. Johnson, R. A. Kowalski, S.
   M. Larson, G. J. Leonard, D. Rankin, R. L. Seaman, F. C. Shelly, K. W.
   Wierzchoś. 1.5-m reflector + 10K CCD.
(H21) Astronomical Research Observatory, Westfield  (N39.483054 W87.968270)
   US/Illinois.  Observer R. Holmes. Measurers S. Foglia, L. Buzzi, T.
   Linder, R. Holmes. 0.76-m f/3.0 astrograph + CCD0.81-m f/4.0 astrograph +
   CCD0.61-m f/4.5 astrograph + CCD0.40-m f/5.32 astrograph + CCD.
(I52) Steward Observatory, Mt. Lemmon Station  (N32.442544 W110.788920)
   US/Arizona.  Observers T. A. Pruyne, B. M. Africano, E. J. Christensen, G.
   A. Farneth, D. C. Fuls, A. R. Gibbs, A. D. Grauer, H. Gröller, J. A.
   Johnson, R. A. Kowalski, S. M. Larson, G. J. Leonard, D. Rankin, R. L.
   Seaman, F. C. Shelly, K. W. Wierzchoś. 1.0-m reflector + CCD.
(V06) Catalina Sky Survey-Kuiper  (N32.416844 W110.732550)  US/Arizona.
   Observers T. A. Pruyne, B. M. Africano, E. J. Christensen, G. A. Farneth,
   D. C. Fuls, A. R. Gibbs, A. D. Grauer, H. Gröller, J. A. Johnson, R. A.
   Kowalski, S. M. Larson, G. J. Leonard, D. Rankin, R. L. Seaman, F. C.
   Shelly, K. W. Wierzchoś. 1.55-m reflector + CCD.

Orbital elements:  C8GKP22
   Perihelion 2022 Jun 13.51138 +/- 308 TT = 12:16:23 (JD 2459744.01138)
Epoch 2022 Nov 26.0 TT = JDT 2459909.5   Earth MOID: 0.4645   AutoNEOCP
M  41.99924952 +/- 80               (J2000 ecliptic)
n   0.25378935 +/- 0.0641           Peri.   33.15635 +/- 34
a   2.47070245 +/- 0.416            Node   315.55656 +/- 8
e   0.4143060 +/- 0.121             Incl.   17.16854 +/- 3.9
P   3.88                   H 19.1   G  0.15   U 11.0  SR
q 1.44707542 +/- 0.0726    Q 3.49432948 +/- 0.828
From 17 observations 2022 Nov. 23-26; mean residual 0".35
Residuals in arcseconds: 
221123 G96  .54+  .33+    221123 I52  .56+  .26+    221126 V06  .41+  .43+    
221123 G96  .16-  .11+    221124 I52  .67-  .36-    221126 V06  .04-  .21-    
221123 G96  .11+  .07+    221124 I52  .24-  .53-    221126 F51  .00   .24-    
221123 G96  .14+  .01-    221126 H21  .58-  .06+    221126 F51  .09+  .35-    
221123 I52  .40-  .17-    221126 H21  .22-  .13-    221126 F51  .01+  .30-    
221123 I52  .07-  .05+    221126 V06  .51+  .99+    

Ephemerides (geocentric):
Date (UTC) HH   RA             Dec           delta  r     elong  mag " sig PA
---- --------  ------------   ------------  ------ ------ -----  --- --------
2022 11 27 07  06 02 23.327   +50 09 17.11  1.1342 2.0153 143.6 21.8 3.96  12
2022 11 27 08  06 02 19.234   +50 09 11.81  1.1342 2.0155 143.6 21.8 4.20  12
2022 11 27 09  06 02 15.138   +50 09 06.46  1.1342 2.0157 143.6 21.8 4.44  12
2022 11 27 10  06 02 11.039   +50 09 01.07  1.1342 2.0159 143.7 21.8 4.69  12
2022 11 27 11  06 02 06.936   +50 08 55.64  1.1342 2.0162 143.7 21.8 4.94  11
2022 11 27 12  06 02 02.829   +50 08 50.16  1.1342 2.0164 143.8 21.8 5.20  11
2022 11 27 13  06 01 58.719   +50 08 44.64  1.1343 2.0166 143.8 21.8 5.47  11
2022 11 27 14  06 01 54.605   +50 08 39.08  1.1343 2.0168 143.8 21.8 5.74  11
2022 11 27 15  06 01 50.488   +50 08 33.47  1.1343 2.0170 143.9 21.8 6.01  11
2022 11 27 16  06 01 46.368   +50 08 27.82  1.1343 2.0172 143.9 21.8 6.29  11
2022 11 27 17  06 01 42.244   +50 08 22.13  1.1343 2.0174 143.9 21.8 6.57  11
2022 11 27 18  06 01 38.117   +50 08 16.39  1.1343 2.0176 144.0 21.8 6.86  10
2022 11 27 19  06 01 33.986   +50 08 10.61  1.1343 2.0178 144.0 21.8 7.16  10
2022 11 27 20  06 01 29.852   +50 08 04.79  1.1343 2.0180 144.0 21.8 7.45  10
2022 11 27 21  06 01 25.715   +50 07 58.92  1.1343 2.0182 144.1 21.8 7.76  10
2022 11 27 22  06 01 21.574   +50 07 53.01  1.1343 2.0184 144.1 21.8 8.07  10
2022 11 27 23  06 01 17.430   +50 07 47.05  1.1343 2.0186 144.2 21.8 8.38  10
2022 11 28 00  06 01 13.283   +50 07 41.05  1.1343 2.0189 144.2 21.8 8.70  10
2022 11 28 01  06 01 09.132   +50 07 35.01  1.1344 2.0191 144.2 21.8 9.02  10
2022 11 28 02  06 01 04.978   +50 07 28.92  1.1344 2.0193 144.3 21.8 9.35  10
2022 11 28 03  06 01 00.821   +50 07 22.79  1.1344 2.0195 144.3 21.8 9.68  10
2022 11 28 04  06 00 56.661   +50 07 16.62  1.1344 2.0197 144.3 21.8 10.0  10
2022 11 28 05  06 00 52.497   +50 07 10.40  1.1344 2.0199 144.4 21.8 10.4   9
2022 11 28 06  06 00 48.330   +50 07 04.14  1.1344 2.0201 144.4 21.8 10.7   9
2022 11 28 07  06 00 44.159   +50 06 57.83  1.1344 2.0203 144.4 21.8 11.1   9
2022 11 28 08  06 00 39.986   +50 06 51.48  1.1344 2.0205 144.5 21.8 11.4   9
2022 11 28 09  06 00 35.809   +50 06 45.09  1.1345 2.0207 144.5 21.8 11.8   9
2022 11 28 10  06 00 31.629   +50 06 38.65  1.1345 2.0209 144.6 21.8 12.2   9
2022 11 28 11  06 00 27.446   +50 06 32.17  1.1345 2.0211 144.6 21.8 12.5   9
2022 11 28 12  06 00 23.260   +50 06 25.64  1.1345 2.0213 144.6 21.8 12.9   9
2022 11 28 13  06 00 19.071   +50 06 19.07  1.1345 2.0216 144.7 21.8 13.3   9
2022 11 28 14  06 00 14.878   +50 06 12.45  1.1345 2.0218 144.7 21.8 13.7   9
2022 11 28 15  06 00 10.683   +50 06 05.80  1.1345 2.0220 144.7 21.8 14.1   9
2022 11 28 16  06 00 06.484   +50 05 59.09  1.1346 2.0222 144.8 21.8 14.5   9
2022 11 28 17  06 00 02.282   +50 05 52.35  1.1346 2.0224 144.8 21.8 14.9   9
2022 11 28 18  05 59 58.077   +50 05 45.55  1.1346 2.0226 144.8 21.8 15.3   9
2022 11 28 19  05 59 53.869   +50 05 38.72  1.1346 2.0228 144.9 21.8 15.7   9
2022 11 28 20  05 59 49.658   +50 05 31.84  1.1346 2.0230 144.9 21.8 16.1   8
2022 11 28 21  05 59 45.444   +50 05 24.92  1.1346 2.0232 144.9 21.8 16.5   8
2022 11 28 22  05 59 41.227   +50 05 17.95  1.1347 2.0234 145.0 21.8 17.0   8
2022 11 28 23  05 59 37.007   +50 05 10.93  1.1347 2.0236 145.0 21.8 17.4   8
2022 11 29 00  05 59 32.784   +50 05 03.88  1.1347 2.0238 145.1 21.8 17.8   8
2022 11 29 01  05 59 28.558   +50 04 56.78  1.1347 2.0240 145.1 21.8 18.3   8
2022 11 29 02  05 59 24.329   +50 04 49.63  1.1347 2.0242 145.1 21.8 18.7   8
2022 11 29 03  05 59 20.097   +50 04 42.44  1.1348 2.0245 145.2 21.8 19.2   8
2022 11 29 04  05 59 15.862   +50 04 35.20  1.1348 2.0247 145.2 21.8 19.7   8
2022 11 29 05  05 59 11.624   +50 04 27.92  1.1348 2.0249 145.2 21.8 20.1   8
2022 11 29 06  05 59 07.383   +50 04 20.60  1.1348 2.0251 145.3 21.8 20.6   8